Location: N�rnberg
(49.4489°N, 11.0797°E)
Time: 15:07:22
(UTC+01:00)

ISS - Pass Details

Date: 09 January 2018
Orbit: 402 x 407 km, 51.6° (Epoch: 21 January)

Event Time Altitude Azimuth Distance (km) Brightness Sun altitude
Exits shadow 05:48:30 49° 59° (ENE) 532 -3.0 -22.1°
Drops below altitude 10° 05:51:09 10° 91° (E) 1,468 0.1 -21.6°
Sets 05:53:15 0° 94° (E) 2,329 1.6 -21.3°
